Tracking 22124 objects as of 25-Jan-2021
HD Live streaming from Space Station
objects crossing your sky now

THOR 3

Track THOR 3 now!
THOR 3 is classified as:


NORAD ID: 25358
Int'l Code: 1998-035A
Perigee: 36,199.3 km
Apogee: 36,205.7 km
Inclination: 8.1 °
Period: 1,457.0 minutes
Semi major axis: 42573 km
RCS: 23.5207 m2 (large)
Launch date: June 10, 1998
Source: Norway (NOR)
Launch site: AIR FORCE EASTERN TEST RANGE (AFETR)

14 Ku-band; Nordic region, central and eastern Europe.
aabbcc
Your satellite tracking list
Your tracking list is empty




NASA's NSSDC Master Catalog

Two Line Element Set (TLE):
1 25358U 98035A   21024.82363671 -.00000150  00000-0  00000-0 0  9990
2 25358   8.1270  52.5208 0000754 330.8168 222.0169  0.98831094 83027
Source of the keplerian elements: AFSPC